This demonstration page uses our WeatherBlox Daily Observations layout. Learn more.

Left ArrowRight Arrow

53.62937, 11.41316

Hourly Observations for July 11, 2018

Temp ( °F °C ) Dew Point ( °F °C ) Humidity (%) Winds ( mph kmh ) Pressure ( in mb ) Visibility ( mi km ) Precip ( " mm )
6:50 am 06:50 Mostly Cloudy 63 17 63 17 100 100 NNE 8 13 29.97 1015 4 6 N/A
7:20 am 07:20 Cloudy with Rain 63 17 63 17 100 100 NE 12 19 29.97 1015 4 6 N/A
7:50 am 07:50 Cloudy with Light Rain 63 17 63 17 100 100 NNE 12 19 29.97 1015 4 7 N/A
8:20 am 08:20 Mostly Cloudy with Light Rain 63 17 63 17 100 100 NE 8 13 29.97 1015 4 7 N/A
8:50 am 08:50 Cloudy with Rain 63 17 63 17 100 100 NE 9 15 29.97 1015 3 5 N/A
9:20 am 09:20 Cloudy with Light Rain 63 17 63 17 100 100 NE 9 15 29.97 1015 4 6 N/A
9:50 am 09:50 Cloudy with Light Rain 63 17 63 17 100 100 NNE 9 15 29.97 1015 4 6 N/A
10:20 am 10:20 Cloudy with Light Rain 63 17 63 17 100 100 NE 10 17 29.97 1015 4 6 N/A
10:50 am 10:50 Cloudy with Rain 63 17 63 17 100 100 NNE 8 13 29.97 1015 2 3 N/A
11:20 am 11:20 Mostly Cloudy with Light Rain 63 17 63 17 100 100 ENE 14 22 29.97 1015 3 5 N/A
11:50 am 11:50 Mostly Cloudy 66 19 64 18 94 94 ENE 13 20 29.97 1015 5 8 N/A
12:20 pm 12:20 Mostly Cloudy with Light Rain 64 18 64 18 100 100 NE 12 19 29.97 1015 30 48 N/A
12:50 pm 12:50 Mostly Cloudy 66 19 64 18 94 94 NE 12 19 29.97 1015 30 48 N/A
1:20 pm 13:20 Mostly Cloudy with Showers Nearby 66 19 64 18 94 94 NE 10 17 29.97 1015 30 48 N/A
1:50 pm 13:50 Mostly Cloudy with Showers Nearby 64 18 63 17 94 94 NE 13 20 29.97 1015 30 48 N/A
2:20 pm 14:20 Mostly Cloudy with Light Rain 64 18 64 18 100 100 NE 12 19 29.97 1015 30 48 N/A
2:50 pm 14:50 Mostly Cloudy with Drizzle 64 18 64 18 100 100 NNE 12 19 29.97 1015 30 48 N/A
3:20 pm 15:20 Mostly Cloudy 64 18 64 18 100 100 NNE 10 17 29.97 1015 30 48 N/A
3:50 pm 15:50 Mostly Cloudy 64 18 63 17 94 94 NE 12 19 29.97 1015 30 48 N/A
4:20 pm 16:20 Mostly Cloudy 64 18 63 17 94 94 NE 10 17 29.97 1015 30 48 N/A
4:50 pm 16:50 Mostly Cloudy with Light Rain 64 18 64 18 100 100 NE 9 15 29.97 1015 30 48 N/A
5:20 pm 17:20 Mostly Cloudy 64 18 64 18 100 100 NE 10 17 29.97 1015 30 48 N/A
5:50 pm 17:50 Mostly Cloudy with Drizzle 64 18 63 17 94 94 NNE 9 15 29.97 1015 30 48 N/A
6:20 pm 18:20 Mostly Cloudy with Light Rain 63 17 63 17 100 100 NNE 9 15 29.97 1015 30 48 N/A
6:50 pm 18:50 Mostly Cloudy with Light Rain 63 17 63 17 100 100 N 6 9 29.97 1015 30 48 N/A
7:20 pm 19:20 Partly Cloudy 63 17 63 17 100 100 N 7 11 29.97 1015 30 48 N/A
7:50 pm 19:50 Mostly Cloudy with Light Rain 63 17 63 17 100 100 N 6 9 29.97 1015 30 48 N/A
8:20 pm 20:20 Mostly Cloudy with Light Rain 63 17 63 17 100 100 NNE 5 7 29.97 1015 30 48 N/A
8:50 pm 20:50 Mostly Cloudy with Drizzle 63 17 63 17 100 100 N 3 6 29.97 1015 30 48 N/A

Powered by AerisWeather